User: anonymous   Login
Location: Fort Wayne
(41.1310°N, 85.1290°W)
Time: 07:58:54
(UTC-04:00)
Language:

SR - Orbit

View from above orbital plane
View from above orbital plane
View from above satellite
View from above satellite

Ground track
Ground track

The orbit data is extracted from the following two-line orbital elements,

1 00046U 60007B   16272.02303476  .00000228  00000-0  69367-4 0  9993
2 00046  66.6892 116.1909 0204266  62.7210 299.4539 14.48936813942276
Epoch (UTC): 28 September 2016 00:33:10
Eccentricity: 0.0204266
inclination: 66.6892°
perigee height: 584 km
apogee height: 874 km
right ascension of ascending node: 116.1909°
argument of perigee: 62.7210°
revolutions per day: 14.48936813
mean anomaly at epoch: 299.4539°
orbit number at epoch: 94227

The dashed part of the orbit path shows where the satellite is in the earth's shadow,  

DLR